Location: Bouchavesnes-Bergen
(49.9859°N, 2.9203°E)
Time: 00:35:34
(UTC+00:00)

Envisat - Pass Details

Date: 05 February 2023
Orbit: 763 x 765 km, 98.2° (Epoch: 28 March)

Event Time Altitude Azimuth Distance (km) Brightness Sun altitude
Rises 06:06:04 0° 0° (N) 3,247 6.1 -11.6°
Reaches altitude 10° 06:09:49 10° 332° (NNW) 2,314 5.1 -11.0°
Maximum altitude 06:11:47 12° 309° (NW) 2,153 4.8 -10.7°
Enters shadow 06:12:19 12° 302° (WNW) 2,165 4.8 -10.6°
